This is the latest recevied weather packets stored in our database for station/object VK3BYD-3. If no packets are shown the sender has not sent any weather packets the latest 10 day(s).
| Time | Temp. | Humidity | Pressure | Rain* | Wind** | Luminosity | Snow |
|---|---|---|---|---|---|---|---|
| 1777849279 | 13.33° C | 98% | 1015.4 hPa | 0 mm | - | - | - |
| 1777848377 | 12.78° C | 98% | 1015.3 hPa | 0 mm | - | - | - |
| 1777847477 | 12.22° C | 98% | 1015.3 hPa | 0 mm | - | - | - |
| 1777846577 | 12.22° C | 99% | 1015.1 hPa | 0 mm | - | - | - |
| 1777845673 | 12.22° C | 99% | 1015.1 hPa | 0 mm | - | - | - |
| 1777844774 | 11.11° C | 99% | 1015 hPa | 0 mm | - | - | - |
| 1777843873 | 10.56° C | 99% | 1014.8 hPa | 0.25 mm | - | - | - |
| 1777842972 | 10.56° C | 98% | 1014.9 hPa | 0.25 mm | - | - | - |
| 1777842069 | 10.56° C | 98% | 1015 hPa | 0.25 mm | - | - | - |
| 1777841163 | 10.56° C | 98% | 1014.8 hPa | 0.25 mm | - | - | - |
| 1777840263 | 10.56° C | 98% | 1014.5 hPa | 0 mm | - | - | - |
| 1777839363 | 10.56° C | 98% | 1014.4 hPa | 0 mm | - | - | - |
| 1777838463 | 10.56° C | 98% | 1014.2 hPa | 0 mm | - | - | - |
| 1777837568 | 10.56° C | 98% | 1013.9 hPa | 0 mm | - | - | - |
| 1777836663 | 10.56° C | 98% | 1013.9 hPa | 0 mm | - | - | - |
| 1777835764 | 10.56° C | 98% | 1013.8 hPa | 0 mm | - | - | - |
| 1777834869 | 10.56° C | 98% | 1014.1 hPa | 0 mm | - | - | - |
| 1777833963 | 10° C | 98% | 1014.2 hPa | 0 mm | - | - | - |
| 1777833060 | 10° C | 98% | 1014.3 hPa | 0 mm | - | - | - |
| 1777832160 | 10° C | 99% | 1014.4 hPa | 0 mm | - | - | - |
| 1777831256 | 9.44° C | 99% | 1014.3 hPa | 0 mm | - | - | - |
| 1777830357 | 8.89° C | 98% | 1014.3 hPa | 0 mm | - | - | - |
| 1777829458 | 8.33° C | 97% | 1014.3 hPa | 0 mm | - | - | - |
| 1777828555 | 8.89° C | 98% | 1014 hPa | 0 mm | - | - | - |
| 1777827657 | 9.44° C | 98% | 1014.2 hPa | 0 mm | - | - | - |
* Rain latest hour (hover to see other rain measurements)
** Current wind speed in m/s (hover to see current wind gust speed)